Location: Tabor
(49.4170°N, 14.6670°E)
Time: 00:37:25
(UTC+02:00)

ISS - Visible Passes

Search period start: 21 June 2025 00:00
Search period end: 01 July 2025 00:00
Orbit: 415 x 417 km, 51.6° (Epoch: 20 June)

Date Brightness Start Highest point End Pass type
(mag) Time Alt. Az. Time Alt. Az. Time Alt. Az.
23 Jun -1.5 03:46:42 10° S 03:48:42 15° SE 03:50:44 10° E visible
25 Jun -2.6 03:45:25 12° SSW 03:48:03 31° SE 03:51:05 10° E visible
26 Jun -2.1 02:58:32 18° S 02:59:39 21° SE 03:02:17 10° E visible
27 Jun -1.6 02:11:36 14° SE 02:11:36 14° SE 02:13:09 10° ESE visible
27 Jun -3.7 03:44:28 12° SW 03:47:31 63° SSE 03:50:51 10° ENE visible
28 Jun -3.3 02:57:29 25° SSW 02:59:01 43° SSE 03:02:14 10° ENE visible
29 Jun -2.8 02:10:27 29° SSE 02:10:33 29° SE 02:13:32 10° E visible
29 Jun -3.7 03:43:44 10° WSW 03:47:06 78° NNW 03:50:28 10° ENE visible
30 Jun -1.7 01:23:21 17° ESE 01:23:21 17° ESE 01:24:40 10° E visible
30 Jun -3.9 02:56:13 19° WSW 02:58:30 82° SSE 03:01:52 10° ENE visible
